BEIDOU-2 G4

Last updated on Tue Sep 22 2026 00:03:12 GMT+0000 (Coordinated Universal Time)

1 37210U 10057A 26264.67273858 -.00000114 00000+0 00000+0 0 9997 2 37210 3.8807 68.2502 0008055 179.7479 154.7135 1.00271360 58252
UTC large
Height (km)
Speed (km/s)
/
Latitude / Longitude
Inclination (degrees)
Orbital Period (minutes)
Azimuth
Elevation
Range (km)
Doppler Factor

Next 0 passes for location: London (51.5072 / 0.1276)

No passes found over London.
BEIDOU-2 G4